sat.trackr.live / text

‹ back to catalog

COSMOS 2548

NORAD 47230 · 2020-091D

PAYLOAD ACTIVE UNKNOWN

§ Identity

Operator
Country
CIS
Launch date
2020-12-03
Launch site
PLMSC
Launch vehicle
Mass (kg)
RCS (m²)

External: N2YO · Heavens-Above · Gunter

§ Orbital elements

Epoch: 2026-09-20T03:37:35.089248Z

Period
115.86 min
Inclination
82.4961°
Eccentricity
0.0015047
Mean motion
12.42929029 rev/d
Perigee alt
1,482.4 km
Apogee alt
1,506.1 km
Semi-major
7,872.3 km
B*
-3.9698e-4
RAAN
242.5687°
Arg perigee
351.6767°
Mean anomaly
8.4061°
Rev number
26,285

§ Raw data

COSMOS 25481 47230U 20091D   26263.15110057 -.00000045  00000+0 -39698-3 0  99952 47230  82.4961 242.5687 0015047 351.6767   8.4061 12.42929029262856

JSON: /api/v1/satellites/47230 · /tle

For live sub-satellite position, see the globe view (requires WebGL).

§ Visibility from observer

Set your observer location to see the next 7 days of passes ≥ 10°. The values pass through the URL so the page stays shareable.

No JS? Fill the form by hand. The geolocation button needs JavaScript.